K4AXV-13 Weather Reports


time (UTC)temp
F
wind
direction
speed
knots
gust
knots
rain 1hr
in
rain 24hr
in
rain mn
in
humidity
%
barometer
mb
20260906085310 74 188 0.0 0.0 0.00 0.02 0.00
20260906084807 74 188 0.0 0.0 0.00 0.02 0.00
20260906084308 74 188 0.0 0.0 0.00 0.02 0.00
20260906083806 74 188 0.0 0.0 0.00 0.02 0.00
20260906083308 74 188 0.0 0.0 0.00 0.02 0.00
20260906082804 74 188 0.0 0.0 0.00 0.02 0.00
20260906082306 73 188 0.0 0.0 0.00 0.02 0.00
20260906081802 74 188 0.0 0.0 0.00 0.02 0.00
20260906081303 74 188 0.0 0.0 0.00 0.02 0.00
20260906080802 75 188 0.0 0.0 0.00 0.02 0.00
20260906074800 75 188 0.0 0.0 0.00 0.02 0.00
20260906074301 75 188 0.0 0.0 0.00 0.02 0.00
20260906073759 75 188 0.0 0.0 0.00 0.02 0.00
20260906072759 75 290 0.0 0.0 0.00 0.02 0.00
20260906071756 75 308 0.9 1.7 0.00 0.02 0.00
20260906070756 75 46 0.0 0.0 0.00 0.02 0.00
20260906065754 75 46 0.0 0.0 0.00 0.02 0.00
20260906065256 75 46 0.0 0.0 0.00 0.02 0.00
20260906064752 75 46 0.0 0.0 0.00 0.02 0.00
20260906063751 75 46 0.0 0.0 0.00 0.02 0.00
20260906063252 75 46 0.0 0.0 0.00 0.00 0.02
20260906062249 76 46 0.0 0.0 0.00 0.00 0.02
20260906061745 76 46 0.0 0.0 0.00 0.00 0.02
20260906061247 76 46 0.0 0.0 0.00 0.00 0.02
20260906060745 76 46 0.0 0.0 0.00 0.00 0.02
20260906060246 76 46 0.0 0.0 0.00 0.00 0.02
20260906055745 76 46 0.0 0.0 0.00 0.00 0.02
20260906055246 76 46 0.0 0.0 0.00 0.00 0.02
20260906054745 77 46 0.0 0.0 0.00 0.00 0.02
20260906052743 76 46 0.0 0.0 0.01 0.00 0.02
20260906051742 77 46 0.0 0.0 0.01 0.00 0.02
20260906051244 77 46 0.0 0.0 0.01 0.00 0.02
20260906050742 77 46 0.0 0.0 0.01 0.00 0.02
20260906050243 77 46 0.0 0.0 0.01 0.00 0.02
20260906045741 77 46 0.0 0.0 0.01 0.00 0.02
20260906045243 78 46 0.0 0.0 0.01 0.00 0.02
20260906044241 77 46 0.0 0.0 0.01 0.00 0.02
20260906043740 78 46 0.0 0.0 0.01 0.00 0.02
20260906043241 77 46 0.0 0.0 0.00 0.00 0.02
20260906042739 78 46 0.0 0.0 0.00 0.00 0.02
20260906041240 77 46 0.0 0.0 0.00 0.00 0.01
20260906040739 78 46 0.0 0.0 0.00 0.00 0.01
20260906040240 78 46 0.0 0.0 0.00 0.00 0.01
20260906035738 78 46 0.0 0.0 0.00 0.00 0.01
20260906035239 78 46 0.0 0.0 0.00 0.00 0.01
20260906034737 79 46 0.0 0.0 0.00 0.00 0.01
20260906025235 79 46 0.0 0.0 0.00 0.00 0.01
20260906024733 79 77 0.9 0.9 0.00 0.00 0.01
20260906024234 79 84 0.9 0.9 0.00 0.00 0.01
20260906022233 79 93 1.7 0.9 0.00 0.00 0.01
20260906021732 80 77 1.7 1.7 0.00 0.00 0.01
20260906021233 80 72 0.0 2.6 0.00 0.00 0.01
20260906020731 79 42 0.0 0.0 0.00 0.00 0.01
20260906014227 80 42 0.0 0.0 0.00 0.00 0.01
20260906013226 80 42 0.0 0.0 0.01 0.00 0.01
20260906011724 80 82 0.0 0.0 0.01 0.00 0.01
20260906010723 80 82 0.9 0.0 0.01 0.00 0.01
20260906005221 81 110 2.6 2.6 0.01 0.00 0.01
20260906004221 83 239 0.0 0.0 0.01 0.00 0.01
20260906002719 84 239 0.0 0.0 0.00 0.00 0.00
20260906002220 84 239 0.0 0.0 0.00 0.00 0.00
20260906001718 84 239 0.0 0.0 0.00 0.00 0.00
20260906000718 85 239 1.7 0.0 0.00 0.00 0.00
20260905234717 85 359 3.5 2.6 0.00 0.00 0.00
20260905234219 85 248 1.7 2.6 0.00 0.00 0.00
20260905232218 87 238 1.7 3.5 0.00 0.00 0.00
20260905230217 88 335 2.6 2.6 0.00 0.00 0.00
20260905225716 88 305 1.7 0.0 0.00 0.00 0.00
20260905224216 89 307 1.7 0.9 0.00 0.00 0.00
20260905222712 90 287 0.0 1.7 0.00 0.00 0.00
20260905220710 91 304 0.0 0.9 0.00 0.00 0.00
20260905220211 92 245 0.9 0.0 0.00 0.00 0.00
20260905215709 92 267 1.7 3.5 0.00 0.00 0.00
20260905214210 92 293 0.9 0.0 0.00 0.00 0.00
20260905213207 92 295 1.7 1.7 0.00 0.00 0.00
20260905212206 91 242 0.0 0.0 0.00 0.00 0.00
20260905211206 93 242 0.0 0.0 0.00 0.00 0.00
20260905210200 93 180 0.0 0.0 0.00 0.00 0.00
20260905205657 93 184 0.0 0.9 0.00 0.00 0.00
20260905204655 93 295 0.0 0.0 0.00 0.00 0.00
20260905204156 93 295 0.0 0.0 0.00 0.00 0.00
20260905203654 93 145 0.0 0.0 0.00 0.00 0.00
20260905203155 93 113 0.0 0.9 0.00 0.00 0.00
20260905202653 93 131 0.9 1.7 0.00 0.00 0.00
20260905195651 92 115 0.9 0.9 0.00 0.00 0.00
20260905195153 93 153 1.7 0.9 0.00 0.00 0.00
20260905194651 93 93 3.5 3.5 0.00 0.00 0.00
20260905192650 93 87 1.7 1.7 0.00 0.00 0.00
20260905192151 92 55 0.0 0.0 0.00 0.00 0.00
20260905191650 93 83 1.7 0.9 0.00 0.00 0.00
20260905191151 93 108 3.5 3.5 0.00 0.00 0.00
20260905190649 93 66 0.9 0.9 0.00 0.00 0.00
20260905190151 94 129 3.5 2.6 0.00 0.00 0.00
20260905185649 94 233 0.0 0.0 0.00 0.00 0.00
20260905185150 94 243 0.0 0.0 0.00 0.00 0.00
20260905184649 95 243 1.7 0.0 0.00 0.00 0.00
20260905184150 94 191 2.6 1.7 0.00 0.00 0.00
20260905183150 94 329 0.9 0.0 0.00 0.00 0.00
20260905182648 94 243 0.9 0.0 0.00 0.00 0.00
20260905182149 93 139 0.0 0.9 0.00 0.00 0.00
20260905181149 93 97 0.9 0.9 0.00 0.00 0.00
20260905180647 93 211 0.0 0.0 0.00 0.00 0.00
20260905175645 92 359 0.9 1.7 0.00 0.00 0.00
20260905175146 93 80 1.7 0.9 0.00 0.00 0.00
20260905174644 93 249 0.9 0.9 0.00 0.00 0.00
20260905173642 93 96 1.7 0.9 0.00 0.00 0.00
20260905173143 93 91 0.0 0.9 0.00 0.00 0.00
20260905172641 92 325 1.7 0.9 0.00 0.00 0.00
20260905171640 92 257 0.9 0.0 0.00 0.00 0.00
20260905170640 92 46 0.9 0.0 0.00 0.00 0.00
20260905165639 91 100 0.9 0.9 0.00 0.00 0.00
20260905164639 92 311 3.5 1.7 0.00 0.00 0.00
20260905164140 92 329 2.6 3.5 0.00 0.00 0.00
20260905163638 91 255 2.6 2.6 0.00 0.00 0.00
20260905163139 91 219 0.9 2.6 0.00 0.00 0.00
20260905162139 91 329 2.6 2.6 0.00 0.00 0.00
20260905161637 90 359 1.7 2.6 0.00 0.00 0.00
20260905161138 90 323 0.9 3.5 0.00 0.00 0.00
20260905160637 90 231 1.7 1.7 0.00 0.00 0.00
20260905160138 90 1 1.7 3.5 0.00 0.00 0.00
20260905155636 90 197 2.6 0.9 0.00 0.00 0.00
20260905154636 89 285 1.7 6.1 0.00 0.00 0.00
20260905154137 89 326 1.7 0.9 0.00 0.00 0.00
20260905153635 89 339 0.0 3.5 0.00 0.00 0.00
20260905153136 89 238 1.7 1.7 0.00 0.00 0.00
20260905152634 89 339 1.7 2.6 0.00 0.00 0.00
20260905151634 89 1 1.7 1.7 0.00 0.00 0.00
20260905151135 89 318 2.6 1.7 0.00 0.00 0.00
20260905150135 88 3 1.7 0.9 0.00 0.00 0.00
20260905145633 87 270 0.0 0.0 0.00 0.00 0.00
20260905145134 87 252 4.3 2.6 0.00 0.00 0.00
20260905144134 86 332 0.9 0.9 0.00 0.00 0.00
20260905142630 85 277 2.6 2.6 0.00 0.00 0.00
20260905141627 84 339 1.7 0.9 0.00 0.00 0.00
20260905141128 83 3 3.5 3.5 0.00 0.00 0.00
20260905135626 83 325 1.7 2.6 0.00 0.00 0.00
20260905134128 82 248 2.6 2.6 0.00 0.00 0.00
20260905133625 81 208 0.9 0.0 0.00 0.00 0.00
20260905132625 81 297 1.7 2.6 0.00 0.00 0.00
20260905131126 81 295 1.7 2.6 0.00 0.00 0.00
20260905130101 76 332 0.0 0.0 0.00 0.00 0.00
20260905125623 81 263 0.9 0.0 0.00 0.00 0.00
20260905125124 80 198 0.0 0.0 0.00 0.00 0.00
20260905124123 80 312 1.7 0.9 0.00 0.00 0.00
20260905123620 80 318 0.0 0.9 0.00 0.00 0.00
20260905123152 80 329 0.9 2.6 0.00 0.00 0.00
20260905123121 80 329 0.9 2.6 0.00 0.00 0.00
20260905122120 79 305 0.9 0.0 0.00 0.00 0.00
20260905121618 79 308 0.0 0.0 0.00 0.00 0.00
20260905120702 78 316 0.0 0.0 0.00 0.00 0.00
20260905120616 78 316 0.0 0.0 0.00 0.00 0.00
20260905120117 79 316 0.0 0.0 0.00 0.00 0.00
20260905115737 78 316 0.0 0.0 0.00 0.00 0.00
20260905115614 78 316 0.0 0.0 0.00 0.00 0.00
20260905114613 77 316 0.0 0.0 0.00 0.00 0.00
20260905114337 77 316 0.0 0.0 0.00 0.00 0.00
20260905114115 77 316 0.0 0.0 0.00 0.00 0.00
20260905111609 76 273 0.0 0.0 0.00 0.00 0.00
20260905110605 75 318 0.0 0.0 0.00 0.00 0.00
20260905110105 75 318 0.0 0.0 0.00 0.00 0.00
20260905105602 75 332 0.0 0.0 0.00 0.00 0.00
20260905105103 74 332 0.0 0.0 0.00 0.00 0.00
20260905104102 75 332 0.0 0.0 0.00 0.00 0.00
20260905102559 74 332 0.0 0.0 0.00 0.00 0.00
20260905102100 75 332 0.0 0.0 0.00 0.00 0.00
20260905101100 75 332 0.0 0.0 0.00 0.00 0.00
20260905100059 75 332 0.0 0.0 0.00 0.00 0.00
20260905095557 75 332 0.0 0.0 0.00 0.00 0.00
20260905094555 75 332 0.0 0.0 0.00 0.00 0.00
20260905094057 75 332 0.0 0.0 0.00 0.00 0.00
20260905093554 75 332 0.0 0.0 0.00 0.00 0.00
20260905093056 75 332 0.0 0.0 0.00 0.00 0.00
20260905092552 75 332 0.0 0.0 0.00 0.00 0.00
20260905091550 75 332 0.0 0.0 0.00 0.00 0.00
20260905091051 75 332 0.0 0.0 0.00 0.00 0.00
20260905090548 75 332 0.0 0.0 0.00 0.00 0.00
20260905090049 75 332 0.0 0.0 0.00 0.00 0.00
20260905085546 75 332 0.0 0.0 0.00 0.00 0.00